Starlink 32621

operational
NORAD ID: 62303 Int'l Des: 2024-239 Owner: SPXS Country: US Constellation: starlink
LEOCIRCULAR

Starlink 32621について

説明を読み込み中...

リアルタイム位置

3D地球を読み込み中...

次回通過

高度履歴

Altitude vs Time

uPlot chart will show altitude changes over time

軌道要素

1 62303U 24239C 26095.18833114 .00030641 00000-0 10430-2 0 9999
2 62303 53.1593 57.8623 0001310 82.7132 277.4017 15.30180180 73624
Epoch: Apr 5, 2026 • Age: 11 hours

現在のステータス

高度 480.8 km
速度 7.63 km/s
衛星直下点 52.82°N, 83.82°E
打ち上げ日 Dec 13, 2024
運用期間 1.3 years
タイプ internet

技術仕様

分類 Payload
質量 730.00 kg
乾燥質量 700.00 kg
総質量 730.00 kg
長さ 0.30 m
直径 4.10 m
スパン 29.00 m
形状 Box + pan
製造者 SPXS
バスタイプ Starlink V2M
フェーズステータス In Orbit
所有者/国 SPXS/US

大規模コンステレーション

Loading constellations...